Precipitable_Water
0.61 0.60 0.58 0.56 0.53 0.51 0.50 0.49 0.47 0.47 0.47 0.47 0.47 0.47 0.47 0.47 0.48 0.50 0.51 0.52 0.52 0.52 0.52 0.51 0.50 0.49 0.47 0.46 0.45 0.44 0.42 0.32 0.25 0.22 0.21 0.20 0.23 0.29 0.30 0.34 0.37 0.41 0.42 0.35 0.27 0.20 0.16 0.18 0.18 0.22 0.22 0.21 0.19 0.18 0.21 0.20 0.20 0.20 0.16 0.14 0.12 0.14 0.13 0.20 0.19 0.20 0.22 0.20 0.21 0.23 0.25 0.24 0.25 0.32 0.37 0.41 0.40 0.39 0.43 0.40 0.46 0.53 0.58 0.60 0.64 0.72 0.79 0.82
0.61 0.59 0.59 0.55 0.52 0.50 0.48 0.48 0.47 0.48 0.47 0.48 0.47 0.48 0.48 0.48 0.48 0.49 0.51 0.51 0.51 0.52 0.51 0.51 0.50 0.48 0.46 0.45 0.44 0.44 0.39 0.30 0.23 0.24 0.20 0.22 0.26 0.31 0.36 0.39 0.40 0.40 0.40 0.28 0.23 0.20 0.17 0.17 0.20 0.21 0.20 0.16 0.20 0.17 0.20 0.19 0.21 0.17 0.16 0.15 0.13 0.14 0.20 0.23 0.23 0.22 0.20 0.20 0.21 0.23 0.25 0.25 0.27 0.29 0.34 0.32 0.35 0.36 0.36 0.41 0.44 0.48 0.55 0.62 0.66 0.72 0.74 0.75
0.59 0.58 0.56 0.54 0.51 0.48 0.47 0.48 0.48 0.49 0.49 0.48 0.49 0.48 0.48 0.49 0.48 0.49 0.50 0.51 0.51 0.51 0.51 0.49 0.48 0.47 0.44 0.44 0.43 0.43 0.36 0.25 0.22 0.16 0.18 0.22 0.29 0.35 0.41 0.41 0.39 0.42 0.33 0.25 0.24 0.21 0.18 0.20 0.21 0.20 0.19 0.17 0.17 0.15 0.18 0.18 0.19 0.19 0.16 0.13 0.13 0.20 0.22 0.24 0.22 0.22 0.23 0.22 0.21 0.22 0.23 0.25 0.26 0.28 0.33 0.30 0.33 0.34 0.34 0.37 0.41 0.42 0.48 0.55 0.61 0.67 0.65 0.65
0.58 0.57 0.56 0.55 0.52 0.50 0.47 0.46 0.48 0.49 0.49 0.49 0.48 0.48 0.48 0.47 0.48 0.49 0.50 0.50 0.50 0.50 0.49 0.48 0.46 0.44 0.44 0.43 0.43 0.40 0.32 0.23 0.21 0.26 0.33 0.34 0.32 0.36 0.36 0.38 0.39 0.40 0.33 0.28 0.24 0.20 0.21 0.21 0.20 0.20 0.18 0.16 0.16 0.17 0.15 0.18 0.16 0.19 0.16 0.13 0.14 0.21 0.20 0.21 0.22 0.23 0.23 0.23 0.21 0.21 0.22 0.23 0.25 0.28 0.29 0.30 0.27 0.29 0.33 0.36 0.36 0.40 0.45 0.50 0.55 0.57 0.56 0.55
0.57 0.57 0.55 0.54 0.52 0.50 0.47 0.45 0.47 0.49 0.49 0.48 0.48 0.47 0.47 0.46 0.47 0.48 0.48 0.48 0.49 0.48 0.47 0.46 0.44 0.43 0.42 0.42 0.42 0.39 0.30 0.29 0.32 0.36 0.34 0.41 0.36 0.35 0.37 0.39 0.40 0.36 0.31 0.26 0.22 0.20 0.21 0.20 0.20 0.21 0.19 0.15 0.16 0.16 0.15 0.17 0.18 0.18 0.16 0.16 0.17 0.20 0.20 0.22 0.23 0.24 0.24 0.24 0.22 0.22 0.21 0.22 0.25 0.27 0.29 0.26 0.21 0.25 0.30 0.37 0.37 0.40 0.45 0.46 0.49 0.51 0.51 0.50
0.57 0.55 0.54 0.53 0.51 0.50 0.47 0.46 0.47 0.48 0.49 0.47 0.47 0.46 0.45 0.45 0.45 0.46 0.47 0.47 0.46 0.46 0.45 0.44 0.42 0.40 0.41 0.41 0.39 0.40 0.30 0.14 0.29 0.31 0.37 0.45 0.42 0.38 0.39 0.38 0.34 0.28 0.24 0.19 0.17 0.19 0.19 0.20 0.20 0.18 0.16 0.16 0.15 0.14 0.16 0.19 0.19 0.16 0.17 0.16 0.18 0.20 0.20 0.23 0.23 0.24 0.23 0.23 0.23 0.21 0.22 0.23 0.22 0.23 0.27 0.27 0.24 0.27 0.37 0.40 0.37 0.39 0.39 0.43 0.48 0.48 0.47 0.47
0.56 0.55 0.54 0.53 0.52 0.51 0.48 0.47 0.48 0.49 0.48 0.46 0.46 0.47 0.46 0.45 0.45 0.45 0.45 0.45 0.45 0.44 0.44 0.42 0.41 0.42 0.40 0.40 0.44 0.40 0.29 0.27 0.36 0.39 0.35 0.37 0.37 0.35 0.32 0.27 0.24 0.19 0.18 0.15 0.16 0.18 0.21 0.20 0.20 0.17 0.17 0.16 0.17 0.17 0.18 0.19 0.20 0.18 0.16 0.17 0.18 0.21 0.21 0.22 0.22 0.23 0.23 0.23 0.23 0.24 0.25 0.22 0.23 0.22 0.25 0.23 0.26 0.30 0.37 0.43 0.42 0.41 0.44 0.48 0.46 0.46 0.44 0.44
0.55 0.55 0.54 0.52 0.52 0.52 0.53 0.52 0.51 0.49 0.48 0.47 0.46 0.46 0.46 0.46 0.46 0.45 0.45 0.44 0.44 0.43 0.43 0.42 0.42 0.41 0.42 0.36 0.32 0.32 0.35 0.32 0.45 0.51 0.35 0.29 0.28 0.24 0.23 0.22 0.20 0.19 0.17 0.14 0.19 0.20 0.21 0.19 0.18 0.21 0.18 0.17 0.19 0.19 0.20 0.20 0.21 0.19 0.17 0.18 0.19 0.20 0.21 0.23 0.23 0.23 0.24 0.24 0.25 0.25 0.23 0.23 0.23 0.24 0.25 0.25 0.27 0.29 0.39 0.47 0.48 0.48 0.49 0.50 0.47 0.44 0.43 0.46
0.53 0.53 0.53 0.55 0.57 0.59 0.59 0.57 0.55 0.54 0.52 0.50 0.48 0.47 0.47 0.46 0.46 0.45 0.45 0.44 0.43 0.43 0.42 0.42 0.41 0.42 0.46 0.41 0.38 0.30 0.27 0.38 0.49 0.47 0.35 0.28 0.24 0.27 0.24 0.19 0.21 0.18 0.18 0.21 0.25 0.25 0.24 0.22 0.24 0.27 0.21 0.21 0.24 0.21 0.22 0.21 0.18 0.20 0.19 0.20 0.20 0.20 0.21 0.23 0.23 0.23 0.23 0.23 0.23 0.23 0.23 0.24 0.25 0.27 0.25 0.27 0.31 0.32 0.39 0.44 0.48 0.50 0.49 0.47 0.41 0.43 0.46 0.47
0.53 0.57 0.60 0.61 0.62 0.62 0.62 0.61 0.60 0.58 0.56 0.54 0.51 0.49 0.48 0.46 0.45 0.45 0.46 0.45 0.45 0.43 0.42 0.42 0.42 0.42 0.40 0.39 0.36 0.25 0.32 0.44 0.43 0.41 0.33 0.26 0.27 0.25 0.23 0.22 0.21 0.22 0.22 0.25 0.28 0.29 0.27 0.27 0.27 0.29 0.27 0.23 0.23 0.20 0.22 0.20 0.19 0.20 0.20 0.21 0.21 0.20 0.21 0.22 0.21 0.22 0.23 0.23 0.22 0.21 0.22 0.23 0.26 0.25 0.23 0.32 0.35 0.36 0.39 0.42 0.47 0.47 0.43 0.40 0.41 0.45 0.46 0.46
0.59 0.61 0.63 0.65 0.65 0.64 0.63 0.62 0.60 0.59 0.57 0.55 0.55 0.53 0.49 0.48 0.46 0.46 0.45 0.44 0.44 0.43 0.43 0.42 0.44 0.40 0.35 0.39 0.30 0.24 0.41 0.39 0.38 0.36 0.29 0.26 0.26 0.26 0.28 0.31 0.32 0.30 0.29 0.29 0.30 0.33 0.31 0.30 0.31 0.29 0.26 0.21 0.22 0.21 0.20 0.19 0.21 0.19 0.20 0.21 0.21 0.21 0.22 0.22 0.22 0.21 0.21 0.22 0.23 0.22 0.21 0.23 0.24 0.23 0.22 0.30 0.35 0.35 0.37 0.41 0.44 0.42 0.39 0.38 0.40 0.43 0.45 0.45
0.61 0.63 0.64 0.65 0.65 0.65 0.64 0.63 0.62 0.61 0.60 0.58 0.55 0.54 0.52 0.49 0.47 0.46 0.45 0.43 0.43 0.43 0.43 0.43 0.42 0.43 0.46 0.40 0.34 0.38 0.44 0.36 0.37 0.33 0.28 0.27 0.30 0.32 0.34 0.35 0.36 0.33 0.32 0.30 0.31 0.32 0.32 0.31 0.30 0.27 0.19 0.25 0.19 0.21 0.20 0.21 0.21 0.20 0.19 0.17 0.19 0.21 0.20 0.21 0.20 0.20 0.20 0.19 0.21 0.20 0.18 0.18 0.20 0.20 0.25 0.30 0.33 0.33 0.33 0.35 0.35 0.34 0.34 0.36 0.39 0.43 0.44 0.43
0.62 0.63 0.64 0.65 0.65 0.65 0.64 0.63 0.63 0.63 0.62 0.61 0.59 0.55 0.52 0.50 0.48 0.47 0.45 0.44 0.44 0.43 0.42 0.41 0.43 0.48 0.40 0.27 0.36 0.47 0.45 0.45 0.38 0.34 0.32 0.28 0.34 0.35 0.35 0.36 0.35 0.35 0.34 0.31 0.30 0.31 0.31 0.31 0.29 0.24 0.25 0.22 0.22 0.19 0.22 0.22 0.21 0.20 0.19 0.18 0.17 0.18 0.18 0.20 0.21 0.20 0.19 0.19 0.19 0.18 0.11 0.11 0.14 0.19 0.22 0.28 0.31 0.31 0.30 0.31 0.32 0.33 0.35 0.37 0.39 0.43 0.44 0.45
0.61 0.62 0.63 0.64 0.63 0.62 0.62 0.63 0.64 0.64 0.64 0.63 0.62 0.60 0.55 0.51 0.50 0.48 0.48 0.45 0.46 0.44 0.43 0.43 0.46 0.43 0.35 0.28 0.36 0.43 0.46 0.49 0.46 0.34 0.32 0.32 0.28 0.29 0.31 0.33 0.35 0.34 0.35 0.32 0.32 0.31 0.29 0.30 0.28 0.26 0.27 0.23 0.21 0.26 0.21 0.21 0.20 0.17 0.18 0.18 0.16 0.15 0.14 0.19 0.19 0.20 0.18 0.20 0.20 0.19 0.12 0.14 0.14 0.15 0.20 0.22 0.30 0.30 0.27 0.28 0.29 0.32 0.34 0.36 0.39 0.41 0.40 0.40
0.60 0.61 0.61 0.61 0.61 0.61 0.61 0.62 0.63 0.64 0.66 0.65 0.63 0.62 0.62 0.56 0.50 0.49 0.47 0.44 0.46 0.47 0.46 0.48 0.48 0.38 0.27 0.29 0.45 0.48 0.48 0.55 0.41 0.34 0.33 0.30 0.27 0.26 0.26 0.27 0.27 0.28 0.29 0.30 0.28 0.29 0.30 0.29 0.27 0.23 0.21 0.25 0.24 0.21 0.18 0.18 0.18 0.18 0.15 0.14 0.16 0.14 0.14 0.17 0.19 0.19 0.16 0.19 0.20 0.19 0.14 0.15 0.17 0.18 0.17 0.20 0.21 0.28 0.26 0.27 0.27 0.30 0.32 0.34 0.37 0.38 0.38 0.39
0.56 0.58 0.59 0.59 0.60 0.61 0.61 0.61 0.61 0.64 0.67 0.69 0.69 0.69 0.66 0.63 0.55 0.48 0.47 0.46 0.46 0.47 0.48 0.39 0.45 0.39 0.28 0.22 0.42 0.53 0.42 0.34 0.32 0.37 0.35 0.32 0.29 0.25 0.27 0.26 0.27 0.27 0.27 0.28 0.30 0.30 0.30 0.28 0.23 0.23 0.22 0.22 0.20 0.18 0.17 0.16 0.15 0.16 0.14 0.13 0.13 0.13 0.12 0.13 0.15 0.18 0.19 0.19 0.20 0.19 0.15 0.17 0.17 0.20 0.21 0.21 0.20 0.20 0.21 0.24 0.25 0.27 0.31 0.34 0.36 0.38 0.39 0.41
0.50 0.54 0.55 0.55 0.56 0.58 0.60 0.61 0.60 0.60 0.63 0.66 0.70 0.75 0.79 0.71 0.64 0.55 0.48 0.46 0.44 0.49 0.41 0.32 0.43 0.42 0.19 0.39 0.51 0.36 0.34 0.34 0.36 0.35 0.34 0.33 0.30 0.28 0.26 0.25 0.24 0.24 0.27 0.27 0.28 0.27 0.26 0.22 0.24 0.20 0.22 0.19 0.19 0.18 0.14 0.12 0.13 0.14 0.15 0.12 0.14 0.13 0.15 0.13 0.17 0.19 0.20 0.19 0.18 0.19 0.17 0.17 0.19 0.21 0.22 0.22 0.20 0.19 0.18 0.20 0.23 0.27 0.31 0.34 0.36 0.38 0.38 0.39
0.45 0.48 0.51 0.51 0.52 0.52 0.55 0.57 0.58 0.58 0.59 0.61 0.65 0.68 0.73 0.75 0.72 0.64 0.49 0.45 0.47 0.47 0.45 0.49 0.46 0.36 0.28 0.38 0.28 0.30 0.38 0.36 0.34 0.33 0.32 0.33 0.31 0.28 0.26 0.23 0.24 0.24 0.24 0.23 0.26 0.22 0.25 0.20 0.21 0.16 0.18 0.19 0.18 0.17 0.13 0.10 0.12 0.13 0.17 0.15 0.14 0.17 0.18 0.18 0.17 0.20 0.19 0.19 0.18 0.18 0.18 0.18 0.20 0.21 0.23 0.23 0.21 0.20 0.18 0.19 0.21 0.25 0.30 0.34 0.36 0.37 0.38 0.39
0.42 0.43 0.46 0.48 0.49 0.49 0.49 0.51 0.53 0.56 0.58 0.58 0.64 0.70 0.74 0.81 0.74 0.63 0.48 0.44 0.28 0.24 0.23 0.32 0.28 0.22 0.21 0.31 0.39 0.39 0.38 0.37 0.35 0.31 0.29 0.29 0.30 0.28 0.27 0.26 0.24 0.22 0.21 0.20 0.22 0.21 0.24 0.21 0.21 0.17 0.13 0.15 0.17 0.17 0.16 0.16 0.17 0.18 0.22 0.22 0.20 0.17 0.18 0.20 0.22 0.23 0.21 0.19 0.18 0.18 0.17 0.18 0.20 0.21 0.23 0.23 0.22 0.21 0.21 0.21 0.23 0.24 0.27 0.31 0.34 0.37 0.38 0.40
0.40 0.41 0.42 0.44 0.46 0.48 0.48 0.48 0.48 0.54 0.60 0.55 0.54 0.56 0.61 0.44 0.47 0.48 0.52 0.47 0.32 0.32 0.39 0.42 0.41 0.37 0.36 0.35 0.34 0.38 0.39 0.40 0.30 0.30 0.29 0.30 0.26 0.24 0.23 0.23 0.22 0.22 0.21 0.17 0.22 0.22 0.25 0.18 0.15 0.14 0.14 0.16 0.20 0.23 0.21 0.23 0.24 0.24 0.24 0.23 0.23 0.22 0.23 0.25 0.24 0.25 0.25 0.21 0.20 0.20 0.19 0.19 0.20 0.22 0.24 0.25 0.24 0.23 0.22 0.22 0.22 0.24 0.27 0.30 0.34 0.37 0.38 0.40
0.38 0.38 0.39 0.41 0.43 0.44 0.45 0.46 0.53 0.58 0.60 0.53 0.50 0.45 0.30 0.29 0.25 0.26 0.36 0.42 0.41 0.43 0.40 0.40 0.41 0.39 0.36 0.41 0.39 0.36 0.32 0.32 0.33 0.29 0.30 0.32 0.27 0.23 0.21 0.21 0.20 0.18 0.19 0.21 0.21 0.33 0.26 0.19 0.17 0.17 0.18 0.19 0.23 0.27 0.28 0.28 0.26 0.23 0.22 0.23 0.23 0.25 0.24 0.27 0.26 0.29 0.26 0.20 0.20 0.22 0.20 0.19 0.21 0.23 0.25 0.27 0.27 0.25 0.25 0.25 0.25 0.26 0.28 0.30 0.32 0.35 0.37 0.39
0.37 0.37 0.37 0.38 0.40 0.43 0.45 0.48 0.53 0.57 0.57 0.53 0.46 0.38 0.41 0.41 0.37 0.41 0.34 0.27 0.35 0.39 0.42 0.40 0.46 0.38 0.42 0.42 0.43 0.44 0.36 0.30 0.31 0.31 0.32 0.30 0.28 0.22 0.22 0.20 0.19 0.17 0.20 0.22 0.23 0.22 0.21 0.19 0.23 0.26 0.26 0.26 0.28 0.30 0.31 0.29 0.28 0.28 0.25 0.24 0.23 0.24 0.26 0.29 0.30 0.30 0.29 0.25 0.23 0.24 0.22 0.22 0.24 0.26 0.30 0.30 0.28 0.28 0.27 0.27 0.27 0.27 0.28 0.30 0.31 0.34 0.38 0.42
0.36 0.35 0.36 0.37 0.42 0.45 0.48 0.52 0.55 0.59 0.56 0.48 0.40 0.41 0.40 0.48 0.54 0.51 0.41 0.28 0.26 0.39 0.36 0.36 0.35 0.33 0.34 0.41 0.45 0.43 0.31 0.27 0.25 0.30 0.31 0.30 0.27 0.25 0.23 0.20 0.20 0.20 0.21 0.22 0.20 0.21 0.19 0.24 0.28 0.31 0.32 0.31 0.32 0.33 0.32 0.32 0.31 0.28 0.27 0.24 0.23 0.27 0.25 0.22 0.28 0.32 0.32 0.29 0.27 0.27 0.24 0.26 0.29 0.30 0.30 0.32 0.30 0.30 0.31 0.30 0.29 0.29 0.28 0.29 0.31 0.33 0.37 0.40
0.34 0.34 0.34 0.39 0.44 0.47 0.51 0.53 0.56 0.54 0.50 0.47 0.43 0.39 0.47 0.56 0.56 0.49 0.33 0.22 0.28 0.35 0.41 0.40 0.40 0.40 0.37 0.34 0.41 0.35 0.30 0.29 0.28 0.28 0.35 0.32 0.26 0.26 0.23 0.23 0.21 0.21 0.20 0.23 0.24 0.23 0.23 0.26 0.31 0.34 0.35 0.33 0.29 0.31 0.30 0.28 0.27 0.30 0.28 0.26 0.25 0.26 0.28 0.27 0.27 0.31 0.33 0.34 0.33 0.30 0.27 0.26 0.28 0.27 0.28 0.30 0.33 0.32 0.32 0.32 0.30 0.29 0.29 0.30 0.31 0.34 0.38 0.40
0.34 0.33 0.33 0.39 0.44 0.49 0.49 0.52 0.46 0.42 0.47 0.44 0.40 0.45 0.51 0.58 0.60 0.53 0.39 0.41 0.40 0.37 0.50 0.44 0.46 0.42 0.43 0.49 0.41 0.33 0.33 0.32 0.31 0.34 0.34 0.29 0.26 0.24 0.23 0.25 0.23 0.20 0.21 0.23 0.22 0.21 0.22 0.26 0.31 0.32 0.35 0.35 0.32 0.30 0.30 0.29 0.24 0.25 0.28 0.28 0.27 0.28 0.27 0.30 0.32 0.29 0.26 0.25 0.29 0.28 0.22 0.22 0.26 0.27 0.27 0.29 0.30 0.28 0.31 0.31 0.29 0.25 0.24 0.27 0.30 0.33 0.37 0.40
0.33 0.32 0.33 0.32 0.37 0.43 0.45 0.37 0.39 0.41 0.42 0.36 0.38 0.45 0.52 0.54 0.56 0.62 0.50 0.40 0.28 0.40 0.45 0.34 0.42 0.38 0.44 0.39 0.40 0.36 0.34 0.27 0.36 0.38 0.36 0.32 0.30 0.25 0.24 0.22 0.22 0.18 0.21 0.22 0.21 0.22 0.21 0.26 0.28 0.29 0.32 0.33 0.32 0.30 0.31 0.30 0.25 0.23 0.25 0.30 0.29 0.29 0.29 0.29 0.29 0.28 0.23 0.20 0.26 0.30 0.21 0.18 0.25 0.24 0.26 0.27 0.26 0.25 0.27 0.30 0.29 0.26 0.24 0.27 0.30 0.32 0.35 0.38
0.32 0.33 0.33 0.32 0.31 0.33 0.23 0.23 0.39 0.40 0.29 0.34 0.44 0.46 0.47 0.49 0.55 0.60 0.49 0.31 0.23 0.36 0.36 0.37 0.36 0.35 0.38 0.39 0.35 0.34 0.21 0.24 0.33 0.35 0.33 0.34 0.25 0.28 0.19 0.20 0.22 0.21 0.22 0.23 0.19 0.18 0.30 0.30 0.29 0.31 0.31 0.31 0.30 0.27 0.31 0.30 0.26 0.22 0.26 0.27 0.28 0.28 0.27 0.28 0.28 0.27 0.26 0.29 0.29 0.29 0.26 0.20 0.18 0.20 0.24 0.25 0.24 0.24 0.24 0.26 0.28 0.28 0.27 0.28 0.30 0.32 0.35 0.37
0.33 0.34 0.33 0.33 0.35 0.37 0.32 0.36 0.33 0.29 0.28 0.36 0.43 0.40 0.39 0.45 0.55 0.65 0.45 0.18 0.20 0.37 0.33 0.34 0.35 0.42 0.35 0.33 0.33 0.28 0.25 0.26 0.22 0.27 0.32 0.33 0.27 0.24 0.21 0.18 0.17 0.19 0.22 0.21 0.15 0.20 0.23 0.25 0.28 0.29 0.29 0.29 0.28 0.30 0.31 0.31 0.25 0.22 0.25 0.27 0.25 0.28 0.29 0.28 0.26 0.25 0.26 0.24 0.21 0.24 0.28 0.19 0.17 0.17 0.22 0.24 0.22 0.22 0.22 0.23 0.25 0.26 0.26 0.29 0.31 0.33 0.35 0.36
0.33 0.34 0.33 0.34 0.42 0.48 0.51 0.41 0.33 0.28 0.37 0.42 0.43 0.41 0.50 0.51 0.58 0.41 0.26 0.18 0.29 0.31 0.38 0.32 0.40 0.35 0.31 0.32 0.28 0.28 0.27 0.27 0.22 0.27 0.30 0.30 0.29 0.24 0.15 0.16 0.17 0.17 0.21 0.21 0.17 0.20 0.23 0.29 0.35 0.32 0.29 0.26 0.28 0.30 0.31 0.30 0.24 0.26 0.28 0.29 0.27 0.26 0.27 0.26 0.24 0.23 0.23 0.20 0.16 0.17 0.20 0.15 0.12 0.12 0.15 0.20 0.20 0.21 0.22 0.23 0.25 0.27 0.28 0.29 0.30 0.32 0.34 0.35
0.34 0.34 0.34 0.35 0.41 0.49 0.46 0.51 0.40 0.40 0.41 0.42 0.41 0.45 0.56 0.58 0.52 0.31 0.23 0.13 0.31 0.23 0.28 0.29 0.29 0.25 0.28 0.24 0.24 0.26 0.24 0.26 0.27 0.28 0.29 0.26 0.27 0.25 0.20 0.20 0.16 0.16 0.18 0.21 0.20 0.21 0.23 0.27 0.32 0.30 0.27 0.29 0.29 0.30 0.29 0.28 0.28 0.29 0.26 0.24 0.24 0.24 0.23 0.23 0.22 0.21 0.19 0.15 0.15 0.17 0.17 0.14 0.09 0.10 0.13 0.15 0.19 0.21 0.23 0.24 0.25 0.27 0.29 0.30 0.31 0.32 0.33 0.33
0.34 0.34 0.34 0.38 0.27 0.36 0.41 0.35 0.41 0.38 0.39 0.43 0.43 0.50 0.47 0.48 0.33 0.21 0.12 0.15 0.27 0.26 0.31 0.27 0.25 0.28 0.22 0.20 0.20 0.24 0.24 0.24 0.25 0.25 0.24 0.27 0.25 0.23 0.21 0.20 0.22 0.17 0.15 0.18 0.18 0.20 0.22 0.24 0.26 0.29 0.29 0.30 0.28 0.25 0.27 0.26 0.24 0.22 0.21 0.21 0.22 0.22 0.23 0.21 0.20 0.21 0.15 0.13 0.17 0.20 0.19 0.20 0.13 0.12 0.16 0.21 0.23 0.24 0.24 0.24 0.25 0.27 0.29 0.30 0.32 0.34 0.34 0.34
0.32 0.34 0.36 0.36 0.36 0.35 0.22 0.21 0.31 0.39 0.41 0.44 0.45 0.46 0.43 0.27 0.31 0.13 0.14 0.28 0.18 0.24 0.25 0.21 0.24 0.24 0.22 0.23 0.22 0.22 0.20 0.23 0.25 0.24 0.22 0.23 0.22 0.21 0.22 0.19 0.20 0.16 0.14 0.14 0.12 0.19 0.19 0.19 0.23 0.24 0.28 0.25 0.25 0.22 0.22 0.22 0.23 0.21 0.22 0.23 0.19 0.18 0.17 0.14 0.15 0.10 0.11 0.11 0.16 0.20 0.22 0.19 0.18 0.18 0.21 0.23 0.25 0.28 0.29 0.28 0.27 0.28 0.29 0.30 0.31 0.33 0.35 0.35
0.33 0.36 0.43 0.41 0.40 0.35 0.35 0.37 0.42 0.42 0.44 0.42 0.38 0.43 0.31 0.19 0.10 0.19 0.22 0.23 0.20 0.23 0.18 0.20 0.19 0.17 0.17 0.18 0.19 0.21 0.22 0.17 0.23 0.22 0.23 0.23 0.22 0.21 0.22 0.21 0.21 0.19 0.14 0.18 0.15 0.16 0.17 0.22 0.23 0.24 0.26 0.29 0.27 0.21 0.21 0.19 0.20 0.21 0.19 0.20 0.18 0.16 0.15 0.12 0.12 0.14 0.12 0.14 0.19 0.21 0.26 0.19 0.22 0.24 0.27 0.27 0.29 0.31 0.31 0.30 0.30 0.29 0.29 0.29 0.30 0.31 0.32 0.33
0.39 0.44 0.41 0.44 0.47 0.43 0.42 0.44 0.45 0.46 0.40 0.35 0.28 0.24 0.27 0.18 0.15 0.30 0.22 0.22 0.21 0.23 0.21 0.19 0.19 0.18 0.16 0.12 0.13 0.16 0.15 0.19 0.20 0.21 0.22 0.20 0.20 0.19 0.20 0.21 0.20 0.18 0.17 0.19 0.16 0.17 0.14 0.16 0.21 0.24 0.22 0.28 0.27 0.25 0.24 0.22 0.20 0.20 0.23 0.21 0.20 0.18 0.16 0.13 0.14 0.13 0.14 0.15 0.19 0.26 0.21 0.19 0.19 0.24 0.30 0.30 0.31 0.32 0.34 0.32 0.31 0.31 0.30 0.30 0.30 0.30 0.31 0.32
0.45 0.51 0.53 0.54 0.56 0.53 0.49 0.43 0.42 0.47 0.41 0.31 0.22 0.17 0.15 0.16 0.22 0.19 0.19 0.22 0.24 0.24 0.21 0.22 0.18 0.17 0.16 0.14 0.16 0.18 0.17 0.15 0.19 0.19 0.19 0.20 0.19 0.19 0.19 0.20 0.22 0.21 0.21 0.15 0.18 0.16 0.15 0.15 0.21 0.25 0.27 0.28 0.25 0.27 0.27 0.24 0.22 0.23 0.21 0.21 0.19 0.19 0.22 0.16 0.18 0.17 0.17 0.17 0.17 0.19 0.18 0.22 0.21 0.26 0.29 0.31 0.32 0.33 0.35 0.34 0.33 0.31 0.32 0.32 0.31 0.32 0.33 0.33
0.45 0.43 0.55 0.49 0.53 0.53 0.57 0.51 0.44 0.43 0.33 0.28 0.14 0.12 0.11 0.22 0.20 0.25 0.21 0.25 0.24 0.21 0.22 0.22 0.17 0.12 0.10 0.10 0.15 0.16 0.23 0.17 0.20 0.19 0.19 0.20 0.21 0.19 0.22 0.22 0.20 0.22 0.21 0.17 0.19 0.17 0.19 0.17 0.22 0.23 0.23 0.24 0.25 0.24 0.24 0.23 0.17 0.25 0.22 0.17 0.17 0.23 0.22 0.20 0.20 0.22 0.21 0.19 0.15 0.20 0.19 0.21 0.25 0.24 0.27 0.29 0.31 0.32 0.34 0.36 0.35 0.35 0.35 0.35 0.35 0.35 0.35 0.36
0.37 0.44 0.41 0.51 0.50 0.55 0.57 0.53 0.42 0.36 0.35 0.23 0.11 0.10 0.21 0.28 0.29 0.25 0.26 0.23 0.24 0.23 0.19 0.14 0.12 0.08 0.08 0.09 0.12 0.16 0.18 0.20 0.20 0.18 0.17 0.22 0.20 0.21 0.19 0.20 0.22 0.22 0.23 0.22 0.21 0.23 0.17 0.18 0.23 0.22 0.21 0.25 0.28 0.27 0.25 0.24 0.25 0.25 0.20 0.23 0.27 0.28 0.27 0.22 0.16 0.19 0.18 0.14 0.15 0.19 0.16 0.16 0.17 0.15 0.25 0.27 0.27 0.29 0.30 0.32 0.33 0.35 0.34 0.33 0.35 0.36 0.38 0.39
0.41 0.45 0.42 0.45 0.50 0.52 0.52 0.47 0.35 0.33 0.32 0.21 0.15 0.20 0.35 0.31 0.29 0.27 0.27 0.25 0.25 0.24 0.19 0.15 0.13 0.13 0.10 0.10 0.09 0.13 0.18 0.17 0.18 0.19 0.18 0.20 0.17 0.26 0.23 0.21 0.25 0.25 0.24 0.26 0.20 0.22 0.23 0.17 0.21 0.23 0.23 0.26 0.28 0.26 0.24 0.27 0.27 0.23 0.23 0.38 0.21 0.20 0.20 0.26 0.21 0.15 0.15 0.14 0.14 0.16 0.17 0.16 0.17 0.18 0.23 0.24 0.24 0.27 0.30 0.32 0.32 0.33 0.34 0.34 0.35 0.36 0.39 0.40
0.40 0.40 0.44 0.56 0.54 0.47 0.40 0.31 0.29 0.28 0.27 0.20 0.22 0.23 0.31 0.35 0.29 0.27 0.27 0.26 0.26 0.22 0.18 0.18 0.12 0.12 0.12 0.11 0.12 0.13 0.15 0.15 0.19 0.18 0.16 0.20 0.17 0.29 0.26 0.27 0.25 0.28 0.27 0.25 0.22 0.24 0.24 0.17 0.19 0.25 0.23 0.25 0.26 0.25 0.19 0.22 0.27 0.28 0.27 0.23 0.26 0.20 0.18 0.16 0.19 0.19 0.17 0.13 0.12 0.12 0.15 0.12 0.18 0.20 0.22 0.22 0.24 0.26 0.29 0.31 0.30 0.31 0.33 0.34 0.37 0.37 0.37 0.38
0.32 0.27 0.37 0.47 0.43 0.36 0.31 0.29 0.26 0.28 0.31 0.22 0.25 0.26 0.32 0.26 0.29 0.30 0.28 0.25 0.23 0.21 0.18 0.15 0.16 0.12 0.11 0.12 0.13 0.12 0.14 0.15 0.16 0.19 0.19 0.20 0.18 0.24 0.23 0.29 0.26 0.27 0.29 0.29 0.25 0.28 0.23 0.25 0.16 0.21 0.25 0.23 0.19 0.24 0.21 0.22 0.20 0.22 0.23 0.21 0.21 0.21 0.25 0.22 0.22 0.17 0.16 0.15 0.14 0.13 0.12 0.13 0.18 0.24 0.23 0.24 0.26 0.27 0.28 0.29 0.30 0.31 0.31 0.33 0.34 0.37 0.38 0.39
0.43 0.34 0.35 0.41 0.36 0.36 0.30 0.28 0.23 0.26 0.27 0.37 0.30 0.23 0.26 0.23 0.27 0.27 0.28 0.28 0.24 0.24 0.17 0.16 0.16 0.14 0.14 0.12 0.12 0.15 0.13 0.12 0.13 0.14 0.16 0.18 0.20 0.18 0.29 0.28 0.29 0.26 0.30 0.30 0.28 0.29 0.24 0.23 0.18 0.22 0.20 0.19 0.19 0.24 0.25 0.24 0.24 0.21 0.20 0.20 0.21 0.20 0.18 0.16 0.15 0.23 0.20 0.16 0.14 0.14 0.12 0.14 0.20 0.27 0.26 0.27 0.29 0.30 0.30 0.29 0.29 0.31 0.33 0.34 0.35 0.36 0.37 0.37
0.25 0.22 0.32 0.39 0.37 0.35 0.26 0.16 0.24 0.30 0.25 0.21 0.21 0.22 0.23 0.26 0.22 0.22 0.23 0.23 0.18 0.16 0.21 0.19 0.20 0.18 0.17 0.15 0.15 0.14 0.13 0.12 0.13 0.12 0.14 0.13 0.17 0.19 0.25 0.30 0.29 0.29 0.25 0.23 0.25 0.32 0.29 0.28 0.23 0.20 0.21 0.20 0.23 0.26 0.27 0.26 0.24 0.24 0.21 0.19 0.21 0.22 0.22 0.19 0.15 0.16 0.21 0.20 0.20 0.18 0.14 0.13 0.22 0.28 0.29 0.29 0.32 0.32 0.32 0.32 0.32 0.32 0.33 0.33 0.34 0.35 0.35 0.35
0.20 0.19 0.43 0.43 0.38 0.30 0.20 0.15 0.22 0.19 0.19 0.21 0.24 0.24 0.23 0.21 0.20 0.21 0.19 0.19 0.17 0.20 0.18 0.17 0.17 0.16 0.20 0.18 0.17 0.15 0.15 0.13 0.13 0.13 0.14 0.14 0.15 0.22 0.27 0.25 0.26 0.25 0.26 0.26 0.28 0.28 0.32 0.21 0.18 0.20 0.23 0.25 0.26 0.26 0.25 0.25 0.23 0.20 0.21 0.20 0.17 0.17 0.19 0.19 0.19 0.20 0.19 0.19 0.17 0.17 0.14 0.14 0.22 0.29 0.31 0.32 0.33 0.34 0.34 0.33 0.32 0.32 0.33 0.34 0.35 0.35 0.35 0.35
0.22 0.25 0.34 0.36 0.36 0.29 0.18 0.14 0.14 0.17 0.19 0.21 0.20 0.20 0.22 0.20 0.18 0.16 0.15 0.16 0.18 0.20 0.20 0.19 0.19 0.19 0.16 0.18 0.17 0.15 0.17 0.12 0.15 0.14 0.14 0.16 0.15 0.22 0.23 0.24 0.25 0.23 0.21 0.24 0.20 0.28 0.18 0.23 0.20 0.16 0.15 0.17 0.19 0.21 0.21 0.23 0.21 0.18 0.17 0.19 0.18 0.17 0.18 0.20 0.20 0.25 0.19 0.19 0.18 0.16 0.12 0.13 0.24 0.29 0.31 0.31 0.32 0.32 0.32 0.33 0.34 0.32 0.32 0.31 0.31 0.33 0.33 0.34
0.25 0.29 0.34 0.33 0.35 0.28 0.18 0.22 0.20 0.18 0.17 0.16 0.15 0.15 0.16 0.16 0.18 0.17 0.16 0.14 0.19 0.19 0.18 0.18 0.18 0.19 0.18 0.19 0.17 0.17 0.18 0.16 0.14 0.18 0.17 0.18 0.18 0.22 0.25 0.25 0.27 0.25 0.26 0.28 0.26 0.27 0.19 0.19 0.18 0.13 0.11 0.09 0.09 0.11 0.12 0.14 0.16 0.18 0.18 0.17 0.18 0.17 0.17 0.17 0.16 0.18 0.15 0.18 0.21 0.18 0.15 0.18 0.23 0.25 0.25 0.25 0.26 0.27 0.29 0.29 0.32 0.33 0.33 0.31 0.30 0.29 0.30 0.31
0.21 0.12 0.19 0.22 0.29 0.28 0.26 0.26 0.23 0.21 0.20 0.18 0.15 0.16 0.16 0.12 0.15 0.18 0.19 0.18 0.21 0.22 0.21 0.20 0.21 0.21 0.19 0.18 0.17 0.17 0.17 0.20 0.19 0.18 0.19 0.19 0.21 0.23 0.25 0.26 0.26 0.27 0.33 0.35 0.31 0.27 0.21 0.21 0.19 0.16 0.14 0.13 0.14 0.16 0.20 0.20 0.18 0.15 0.17 0.18 0.19 0.22 0.22 0.20 0.19 0.16 0.14 0.17 0.17 0.18 0.18 0.17 0.17 0.20 0.23 0.24 0.24 0.22 0.22 0.23 0.24 0.27 0.28 0.29 0.29 0.30 0.31 0.31
0.31 0.17 0.17 0.12 0.18 0.19 0.20 0.24 0.22 0.23 0.19 0.25 0.17 0.19 0.14 0.16 0.18 0.18 0.22 0.18 0.23 0.23 0.23 0.23 0.23 0.21 0.22 0.21 0.20 0.20 0.23 0.21 0.24 0.22 0.24 0.23 0.25 0.26 0.28 0.27 0.27 0.32 0.35 0.34 0.34 0.28 0.23 0.19 0.19 0.18 0.17 0.17 0.18 0.18 0.19 0.19 0.16 0.15 0.14 0.13 0.15 0.19 0.22 0.21 0.18 0.15 0.17 0.16 0.13 0.16 0.19 0.17 0.16 0.18 0.21 0.22 0.23 0.22 0.23 0.23 0.24 0.26 0.28 0.29 0.29 0.31 0.32 0.30
0.16 0.22 0.23 0.25 0.15 0.13 0.14 0.15 0.20 0.19 0.21 0.23 0.21 0.24 0.20 0.20 0.21 0.19 0.24 0.25 0.26 0.26 0.22 0.25 0.25 0.24 0.25 0.23 0.24 0.21 0.22 0.22 0.22 0.20 0.24 0.25 0.23 0.25 0.23 0.27 0.27 0.30 0.30 0.30 0.34 0.27 0.22 0.18 0.20 0.20 0.18 0.20 0.21 0.20 0.21 0.20 0.18 0.17 0.16 0.15 0.15 0.16 0.17 0.17 0.18 0.20 0.20 0.17 0.14 0.15 0.18 0.17 0.17 0.18 0.21 0.23 0.23 0.23 0.24 0.25 0.27 0.28 0.28 0.28 0.28 0.28 0.27 0.25
0.25 0.24 0.25 0.29 0.18 0.20 0.18 0.19 0.20 0.20 0.20 0.23 0.23 0.24 0.22 0.22 0.21 0.25 0.24 0.23 0.24 0.24 0.25 0.21 0.24 0.26 0.26 0.26 0.25 0.23 0.24 0.20 0.20 0.25 0.23 0.21 0.22 0.23 0.22 0.25 0.28 0.29 0.29 0.29 0.29 0.30 0.25 0.21 0.22 0.22 0.20 0.21 0.21 0.21 0.21 0.19 0.18 0.17 0.16 0.17 0.18 0.18 0.17 0.17 0.17 0.19 0.19 0.18 0.18 0.17 0.17 0.18 0.19 0.22 0.24 0.26 0.28 0.29 0.30 0.31 0.30 0.28 0.28 0.28 0.27 0.25 0.25 0.25
0.19 0.20 0.19 0.26 0.23 0.19 0.21 0.21 0.21 0.21 0.20 0.24 0.20 0.24 0.24 0.22 0.22 0.24 0.26 0.24 0.22 0.24 0.28 0.25 0.26 0.28 0.28 0.28 0.26 0.23 0.24 0.25 0.24 0.22 0.24 0.23 0.22 0.24 0.23 0.25 0.25 0.28 0.30 0.28 0.29 0.30 0.27 0.23 0.25 0.24 0.21 0.20 0.22 0.22 0.21 0.20 0.19 0.16 0.16 0.17 0.18 0.18 0.18 0.18 0.18 0.16 0.17 0.17 0.18 0.18 0.17 0.16 0.24 0.27 0.28 0.31 0.31 0.32 0.30 0.29 0.29 0.29 0.29 0.28 0.26 0.26 0.27 0.28
0.30 0.34 0.33 0.23 0.17 0.21 0.22 0.23 0.21 0.21 0.20 0.24 0.22 0.26 0.26 0.25 0.23 0.26 0.26 0.29 0.26 0.25 0.27 0.26 0.28 0.29 0.29 0.28 0.27 0.25 0.26 0.26 0.25 0.25 0.26 0.25 0.21 0.25 0.23 0.23 0.28 0.24 0.26 0.27 0.29 0.29 0.28 0.24 0.26 0.24 0.20 0.19 0.22 0.20 0.20 0.21 0.19 0.17 0.16 0.18 0.18 0.17 0.15 0.16 0.16 0.18 0.17 0.15 0.16 0.16 0.15 0.15 0.24 0.28 0.28 0.29 0.28 0.27 0.27 0.28 0.28 0.28 0.29 0.27 0.27 0.27 0.27 0.28
0.32 0.38 0.39 0.30 0.19 0.26 0.20 0.23 0.24 0.22 0.20 0.25 0.27 0.28 0.26 0.26 0.28 0.29 0.26 0.31 0.32 0.32 0.31 0.31 0.30 0.28 0.28 0.28 0.26 0.26 0.28 0.27 0.27 0.27 0.27 0.27 0.27 0.26 0.26 0.26 0.26 0.25 0.24 0.24 0.27 0.25 0.26 0.26 0.24 0.23 0.20 0.19 0.22 0.22 0.21 0.21 0.18 0.14 0.14 0.17 0.18 0.18 0.18 0.17 0.18 0.19 0.19 0.19 0.15 0.14 0.14 0.21 0.25 0.28 0.24 0.24 0.26 0.27 0.27 0.27 0.28 0.28 0.28 0.29 0.29 0.29 0.29 0.30
Wind_Speed
13 13 12 12 12 12 11 11 11 11 11 11 11 10 11 11 11 11 11 11 11 11 11 12 12 12 12 12 13 14 14 14 14 14 15 15 15 15 15 15 15 15 15 15 15 15 15 16 16 16 16 16 16 17 17 17 17 15 15 15 15 15 13 13 12 10 10 11 11 10 11 14 13 12 12 11 11 12 13 13 12 11 11 12 12 13 14 13
12 12 12 11 11 11 10 10 10 10 10 10 10 10 9 9 10 10 10 10 10 10 10 11 11 11 11 12 12 13 13 13 13 15 15 15 15 15 15 15 15 14 14 15 15 15 15 15 15 14 15 15 16 16 16 16 16 15 14 14 14 14 13 12 12 12 11 13 13 11 12 14 14 14 12 12 12 11 12 12 10 9 9 10 12 13 13 14
11 11 11 10 10 10 10 10 9 9 9 9 9 9 9 8 8 9 9 9 9 9 9 10 10 10 10 11 11 11 11 11 12 13 12 13 15 15 14 14 13 13 14 14 14 14 15 15 14 14 15 15 16 16 16 16 15 15 14 13 13 13 13 13 12 12 11 12 13 12 12 13 14 14 13 13 12 11 13 13 11 11 11 12 13 14 14 14
11 10 10 10 9 9 9 9 9 9 9 9 8 8 8 8 7 8 8 8 8 8 8 8 9 9 9 10 10 9 9 9 10 10 10 11 13 13 13 13 12 13 13 13 13 13 14 14 13 13 14 15 15 15 15 16 15 14 15 14 13 13 13 14 13 13 11 9 11 12 11 12 13 13 13 14 13 13 15 16 14 14 15 15 15 15 15 15
10 9 9 9 9 9 8 8 8 8 8 8 8 8 7 7 7 7 7 7 7 7 7 7 7 8 8 8 8 8 7 7 8 9 9 9 11 12 12 12 12 12 12 12 11 12 13 12 12 12 12 13 13 13 14 15 15 14 14 15 14 14 14 15 15 14 12 9 9 10 10 12 12 12 13 14 15 17 18 17 16 16 17 17 17 16 15 15
9 9 8 8 8 8 8 8 8 8 8 7 7 7 7 6 7 6 7 7 7 7 7 7 6 6 7 7 7 6 6 6 7 7 8 8 9 10 10 11 11 11 11 11 11 10 11 11 11 11 10 11 12 12 13 14 14 13 14 14 15 15 15 14 14 13 12 9 10 11 11 12 11 11 13 13 15 18 17 17 17 16 17 17 17 16 15 15
8 8 8 8 8 8 8 7 7 7 7 7 7 7 6 6 6 6 6 6 6 6 6 6 6 6 6 6 6 5 6 7 8 7 7 7 8 9 9 10 10 10 10 10 11 10 10 10 10 9 9 9 10 11 12 12 13 13 13 14 16 16 16 15 15 14 12 10 11 11 10 11 10 12 13 13 14 15 15 15 15 15 15 16 16 15 15 15
7 7 7 7 7 7 7 7 7 7 7 7 7 7 6 6 6 6 6 6 6 6 6 6 5 5 5 5 4 4 6 7 7 7 7 7 7 8 8 9 9 9 10 10 11 9 9 9 9 8 8 9 9 10 11 11 12 13 14 14 15 16 16 16 15 14 13 12 12 11 10 12 12 12 13 13 13 13 13 13 13 14 14 15 15 14 14 14
6 6 6 6 6 7 7 7 7 7 7 7 7 7 7 7 6 6 6 6 6 5 6 5 5 5 4 4 4 4 5 5 5 5 7 7 6 7 8 8 9 9 10 10 10 9 8 8 8 8 8 10 10 10 10 10 11 13 15 15 14 14 15 15 14 14 14 14 13 12 12 13 13 12 12 14 13 13 13 13 13 15 15 15 15 15 15 14
6 6 6 6 6 6 7 7 7 7 7 6 6 7 7 7 7 6 6 6 6 6 6 5 5 4 4 5 4 4 4 4 3 4 6 6 6 7 7 7 8 9 9 10 10 10 9 9 9 9 10 11 10 10 10 10 11 13 16 17 15 14 14 14 14 14 15 14 13 13 15 14 13 12 12 13 13 12 13 13 15 16 16 16 16 16 16 15
5 5 6 6 6 7 7 7 7 7 7 6 7 7 7 7 7 7 6 6 6 6 6 5 5 4 5 5 4 5 4 3 4 4 5 6 6 6 7 7 8 9 9 9 10 10 11 11 10 9 10 10 9 9 10 10 11 14 14 15 14 13 14 14 13 13 13 14 14 13 15 16 13 11 12 14 13 13 13 14 16 17 16 17 16 16 16 15
5 5 6 6 6 7 7 7 7 7 7 6 6 7 7 7 6 6 6 6 6 6 6 5 5 5 5 5 6 6 4 4 4 4 5 6 6 6 6 7 8 8 9 9 9 10 11 12 11 10 10 9 8 8 9 10 11 12 11 12 13 12 12 13 13 13 12 13 14 12 13 16 15 15 14 14 15 15 15 16 17 16 16 17 17 16 16 15
5 5 6 6 6 7 7 7 7 7 7 6 6 6 6 6 6 6 6 6 6 6 6 6 6 6 5 6 6 6 5 6 5 6 6 6 6 6 6 7 8 8 9 10 10 10 10 11 11 11 10 9 9 9 9 10 10 9 8 10 12 12 13 14 13 13 12 12 13 11 12 14 16 18 16 14 16 16 16 18 17 16 16 17 17 16 16 16
6 6 6 6 6 7 7 7 7 7 7 6 6 6 6 6 6 6 6 6 6 6 6 6 6 6 6 7 7 6 6 7 7 8 8 7 6 6 7 8 8 9 10 11 11 10 10 10 10 10 11 10 10 10 9 9 8 8 8 9 11 12 14 15 14 13 13 13 13 10 12 13 13 16 17 15 17 17 17 18 18 17 17 17 18 17 17 17
6 6 6 6 6 7 7 7 7 7 7 6 6 6 6 5 5 5 5 5 6 6 6 6 6 6 7 8 7 7 7 7 9 10 9 8 8 7 7 8 9 9 10 10 11 10 10 10 9 10 11 10 9 9 10 9 9 8 9 9 10 12 14 15 15 15 14 13 13 12 12 13 12 14 16 16 18 19 19 19 18 17 18 18 18 18 17 17
7 7 7 7 7 7 7 7 7 7 7 7 7 6 6 6 5 5 5 5 5 5 5 5 5 6 6 7 7 7 8 8 9 10 10 10 9 9 8 8 9 9 10 10 10 10 10 9 9 10 11 10 9 8 9 9 9 9 9 11 11 11 12 12 13 15 14 13 14 14 13 12 12 14 14 15 19 20 19 20 19 18 18 18 18 17 17 17
7 7 7 7 7 7 7 7 7 7 7 7 7 7 7 6 5 5 5 4 4 4 4 4 5 6 7 7 7 7 8 9 9 9 10 11 11 11 10 9 10 10 10 11 10 10 10 9 9 10 10 10 9 8 8 9 10 10 9 10 11 11 11 12 13 15 14 14 15 16 14 13 13 13 13 14 18 21 19 19 20 18 18 18 17 17 18 18
8 7 7 7 7 8 8 8 8 8 8 8 8 7 6 6 6 5 5 4 4 4 4 5 4 5 6 6 6 7 8 8 8 9 11 11 12 12 11 10 10 10 10 10 10 10 10 9 9 9 9 10 10 8 9 11 11 10 9 9 11 11 11 12 14 14 13 14 16 16 14 15 15 13 12 12 13 16 17 17 19 19 18 18 18 18 19 19
8 8 8 8 8 8 8 8 8 8 8 8 8 7 6 5 5 6 5 5 5 5 5 5 5 4 5 7 7 7 7 7 7 8 10 11 11 12 12 11 11 10 9 9 9 9 9 9 8 9 11 12 12 11 12 12 11 11 10 9 10 10 11 12 13 13 13 14 15 16 15 15 14 13 12 11 9 11 15 16 17 19 19 19 19 20 20 20
8 8 8 8 9 9 9 8 8 8 8 8 8 6 5 5 5 6 6 7 8 8 7 7 7 7 7 7 6 6 6 6 7 8 9 10 10 11 11 11 10 9 9 9 10 9 9 9 10 11 12 13 14 13 12 12 11 10 9 9 10 10 12 12 12 12 12 13 14 15 15 14 14 13 13 13 11 12 15 16 17 18 20 21 21 21 21 21
9 9 9 9 9 9 9 8 8 8 8 8 8 6 6 6 5 6 7 8 9 10 10 10 9 10 10 8 7 6 6 7 7 8 9 9 9 9 10 10 9 10 10 10 10 9 8 10 12 12 13 13 13 12 11 10 10 10 10 11 11 11 12 13 11 11 10 11 13 13 13 14 14 14 14 14 13 15 17 18 18 18 20 21 22 22 22 22
9 9 9 9 9 9 9 9 8 8 8 8 7 6 6 6 6 7 7 8 9 10 11 11 10 11 12 11 11 11 9 8 8 8 8 8 8 8 9 9 9 10 10 9 10 10 9 11 13 13 12 11 11 11 10 10 10 10 11 12 13 12 13 13 12 11 10 10 14 13 12 14 15 15 16 16 16 17 19 20 20 20 20 22 22 22 22 21
9 9 9 9 9 9 9 9 9 9 9 8 7 7 7 7 7 8 7 7 9 9 9 10 10 10 11 10 10 11 10 8 9 10 9 8 8 8 9 8 9 10 9 9 10 11 10 11 12 12 11 11 12 12 10 10 11 11 12 12 14 14 12 13 13 13 13 12 14 13 13 15 16 16 16 17 17 18 19 21 21 20 21 23 23 23 23 22
9 9 9 9 9 9 9 9 9 8 8 8 7 7 7 7 7 7 6 6 7 7 7 8 8 8 10 9 8 9 9 8 8 9 9 10 9 8 8 9 9 10 10 11 11 12 13 13 11 10 10 12 13 13 11 11 13 14 14 14 15 15 14 15 15 14 14 15 14 14 15 17 16 16 17 17 17 18 21 22 23 22 22 23 23 23 23 23
10 9 9 9 8 9 9 8 7 7 7 6 6 7 6 6 7 6 5 5 6 6 6 6 6 7 8 8 7 7 8 8 8 8 8 9 8 7 8 9 9 10 12 12 12 13 15 15 13 11 13 13 13 13 13 13 14 15 16 16 16 17 16 15 15 14 14 16 16 15 15 17 17 16 17 17 17 19 20 21 23 24 22 22 22 22 23 23
10 9 9 8 8 8 8 6 6 6 5 5 6 6 6 6 7 6 5 4 5 7 6 5 5 6 7 7 7 6 6 8 9 9 8 8 8 8 9 10 10 11 12 12 12 12 14 13 12 13 14 13 13 14 14 13 13 15 16 16 16 16 16 15 15 15 15 16 17 15 15 18 18 18 19 19 19 20 19 19 21 21 19 20 21 22 23 22
9 9 8 8 8 7 6 5 6 5 4 5 7 7 7 7 6 5 4 4 5 6 6 5 5 5 6 7 7 5 6 8 8 7 8 8 8 8 9 10 10 12 12 11 11 12 12 11 11 12 12 12 12 14 15 13 12 15 15 14 15 16 16 16 15 15 16 17 17 15 15 18 20 20 20 20 20 20 19 18 19 19 18 19 20 21 22 22
9 8 8 7 7 6 5 5 6 5 5 6 8 8 7 6 5 4 2 3 4 4 5 6 5 5 6 5 6 5 6 7 5 7 8 9 9 8 10 11 11 13 13 11 12 13 11 11 11 11 11 12 12 14 14 12 12 15 14 12 14 14 15 15 13 14 15 15 17 17 15 18 20 19 17 17 17 18 17 17 18 18 18 19 20 20 21 20
8 7 7 7 6 5 5 5 5 5 6 7 8 7 6 4 3 3 1 2 3 3 3 5 5 6 5 5 5 6 6 6 5 7 8 8 9 9 10 11 10 12 13 12 12 14 12 12 12 10 10 12 13 13 12 12 14 14 12 11 11 11 13 13 12 13 13 14 16 17 16 16 18 18 15 14 14 15 15 16 17 18 19 19 20 19 19 18
7 7 7 6 5 5 5 5 5 6 7 8 7 6 4 3 2 2 1 2 3 3 2 3 4 5 4 5 6 7 7 7 7 7 7 8 9 8 8 9 8 10 12 12 13 14 13 12 13 11 11 12 12 12 12 12 14 13 11 12 11 11 12 12 13 12 12 14 15 15 14 13 14 15 14 12 12 13 14 15 15 16 18 20 20 19 19 18
7 6 6 6 5 5 5 5 5 5 6 6 6 4 3 2 1 1 1 2 3 3 3 3 4 4 4 6 7 7 7 8 8 7 8 8 8 8 7 8 8 7 10 12 13 14 13 12 13 13 13 12 12 13 12 12 13 11 10 11 12 12 11 11 13 12 11 13 14 13 11 11 12 13 12 11 12 13 15 15 14 13 15 18 18 18 19 19
7 6 6 5 5 5 5 5 5 5 5 5 5 3 1 1 1 1 2 3 3 3 3 3 4 5 6 7 7 8 8 8 9 9 10 9 8 8 8 8 8 7 9 11 12 13 13 13 13 13 13 12 11 13 13 12 11 10 10 9 10 11 10 11 13 12 12 14 15 13 12 12 14 15 14 13 14 14 13 14 14 13 14 16 17 18 20 20
7 6 5 5 5 4 4 5 5 5 5 4 3 2 1 0 2 2 3 3 2 3 4 4 5 5 6 6 8 8 8 9 10 10 10 10 9 10 10 10 9 8 10 11 10 10 11 12 12 11 12 12 11 12 12 12 11 11 11 10 10 9 9 12 12 11 13 15 15 14 13 13 14 13 13 13 14 13 12 14 15 14 15 16 17 18 18 19
7 6 5 5 5 5 5 5 5 4 4 4 2 1 1 1 3 3 3 3 4 5 5 5 7 7 6 6 8 9 10 11 10 9 10 10 10 11 11 11 10 9 10 11 11 11 10 11 11 10 11 11 10 11 12 10 10 12 12 11 11 10 10 11 11 11 13 13 13 13 11 12 11 11 11 12 13 13 12 13 12 12 13 15 16 16 16 18
7 6 6 6 5 5 5 5 5 4 4 3 2 1 2 4 4 4 5 5 6 7 7 7 8 8 8 8 8 9 9 10 10 9 10 11 11 11 10 11 11 10 10 11 12 11 11 13 13 12 12 10 9 11 11 10 10 12 12 11 12 12 11 12 12 12 12 12 13 13 13 13 13 13 13 11 12 11 10 11 9 8 9 9 10 11 13 17
7 6 6 6 5 5 5 5 4 3 4 3 2 3 4 5 5 4 5 6 6 8 9 9 8 8 9 9 9 10 9 8 9 9 10 11 12 12 12 12 12 12 12 12 13 12 12 13 13 12 11 9 10 11 11 11 11 11 11 12 13 12 11 13 14 13 11 12 14 13 13 15 14 15 14 12 12 11 10 9 7 5 4 5 6 7 10 13
6 6 6 6 6 6 6 5 5 4 4 3 3 5 5 5 6 5 5 6 7 7 8 8 9 9 9 10 10 11 11 10 9 9 10 11 12 12 12 12 12 12 13 13 14 14 12 13 14 12 12 12 12 10 10 10 11 10 11 12 13 11 11 12 12 12 12 13 15 13 14 15 14 13 13 11 11 12 10 10 8 6 5 5 6 6 7 8
6 6 7 7 7 7 6 6 6 6 5 3 5 6 5 5 6 6 7 8 8 8 8 8 10 10 10 11 11 12 12 11 10 10 11 11 11 11 11 13 13 13 14 13 13 14 13 13 15 13 13 15 14 11 11 11 9 10 11 12 11 12 13 13 12 12 13 14 15 14 15 15 13 13 11 10 11 11 11 10 9 10 9 7 7 6 6 7
7 7 7 7 7 7 6 6 7 6 5 5 6 7 6 7 8 8 9 10 9 9 10 10 11 11 11 12 13 13 12 12 12 12 12 12 13 13 12 13 14 15 15 13 13 15 13 13 15 14 13 14 13 12 13 13 12 12 12 12 12 13 14 15 15 15 14 15 15 15 15 14 14 13 11 11 12 11 11 11 11 12 12 11 10 9 8 7
8 7 8 8 7 7 7 7 7 6 6 7 8 8 9 10 10 11 11 11 11 11 12 12 12 13 14 14 14 14 13 13 14 14 14 14 15 15 14 14 15 15 14 12 13 15 14 14 16 16 15 14 14 14 13 14 14 14 15 15 15 15 14 15 16 16 15 15 15 15 16 17 16 15 13 12 13 12 11 11 12 12 11 11 12 12 12 12
9 8 9 9 9 9 9 8 9 8 8 9 10 10 11 11 12 13 13 13 13 13 13 13 13 14 14 14 14 15 14 15 15 14 15 15 15 16 16 15 15 16 15 14 15 16 16 16 17 17 17 17 18 18 16 16 16 17 18 19 19 18 17 16 17 18 16 16 16 16 18 20 18 16 15 14 14 13 12 11 12 12 11 11 12 13 14 15
9 10 11 11 11 11 10 10 10 10 9 10 11 11 12 13 13 14 15 15 15 14 14 14 14 14 15 14 15 15 15 16 16 15 15 16 16 17 17 16 16 16 16 16 18 18 17 16 17 18 19 20 21 22 20 19 18 18 19 20 19 18 17 17 19 19 18 18 18 17 18 21 20 17 16 16 15 15 14 13 13 13 13 12 13 14 14 15
11 12 12 12 12 12 10 11 12 11 11 13 13 13 14 14 15 15 16 16 16 15 15 15 15 16 16 16 16 16 16 17 18 17 16 17 17 17 17 18 19 18 17 18 20 20 19 18 19 20 21 21 22 22 21 19 19 19 20 20 19 17 17 18 20 20 19 20 19 17 19 22 20 17 16 16 16 16 16 15 15 15 16 15 15 15 16 16
13 13 13 13 13 12 11 12 13 13 14 15 14 15 15 15 16 17 17 17 17 16 16 17 17 17 18 17 17 18 17 17 18 18 17 17 17 16 16 18 19 18 18 19 20 20 20 20 19 20 21 21 21 20 20 20 19 21 22 22 20 18 19 20 19 19 20 21 20 18 21 22 19 17 16 15 16 17 17 18 18 18 18 18 18 18 18 18
13 13 13 14 13 11 11 13 13 14 16 16 15 17 17 17 18 19 19 19 18 18 18 18 18 18 19 18 18 19 18 17 18 19 18 18 18 17 17 18 18 18 19 20 19 19 20 21 20 19 20 21 20 19 20 20 20 21 22 22 20 19 20 20 18 18 20 21 21 20 22 24 22 20 18 19 19 19 20 20 20 20 20 20 20 21 20 20
13 13 14 14 13 12 12 13 13 14 16 16 17 18 18 18 19 20 19 19 18 18 19 19 19 18 19 19 19 19 19 18 19 18 18 18 18 18 19 19 18 18 19 19 18 18 19 21 21 21 22 22 21 22 22 21 22 23 24 24 22 20 20 19 19 20 21 21 23 24 24 25 26 22 20 21 22 23 24 23 22 22 22 22 23 22 22 22
13 13 13 14 14 14 14 14 14 15 17 18 18 19 19 19 20 19 19 18 18 18 19 19 18 18 19 18 18 18 18 18 18 18 18 18 19 19 20 19 18 18 18 18 19 18 18 21 22 21 23 23 22 23 22 22 23 24 25 27 25 22 21 21 22 23 22 21 24 26 23 24 27 25 22 23 24 24 25 25 23 23 23 23 24 23 23 24
13 14 14 14 15 15 15 17 17 18 20 20 19 19 19 19 19 19 19 19 17 18 18 19 18 18 18 17 16 17 18 17 17 18 18 19 19 19 19 19 19 19 18 19 19 18 19 22 22 21 23 23 22 22 22 22 23 24 24 26 25 23 23 25 25 24 22 23 26 27 24 25 26 25 24 25 25 25 25 24 24 23 24 24 25 25 26 27
14 15 15 15 16 17 17 19 19 19 20 20 19 19 19 20 20 20 19 19 18 18 17 18 19 19 18 17 16 17 18 18 18 19 19 19 20 19 18 19 19 18 18 20 21 19 20 22 22 22 23 23 22 23 23 23 24 25 26 25 23 24 24 25 25 25 25 26 27 27 26 26 26 26 26 25 24 23 23 23 24 24 25 26 27 28 28 29
15 15 17 17 17 18 18 19 19 19 19 20 19 19 19 20 20 20 20 19 19 18 17 17 19 19 18 18 17 18 19 19 19 20 20 20 20 20 19 19 19 19 20 21 21 20 21 22 22 21 22 23 23 23 24 24 25 27 26 23 22 24 24 23 24 24 24 26 26 26 27 27 27 27 26 24 23 22 22 24 25 26 26 27 27 28 28 29
16 16 17 17 17 18 18 19 19 19 19 19 19 20 20 20 21 21 20 19 17 17 17 17 18 19 19 18 17 19 21 20 19 21 21 21 22 21 21 21 21 22 22 21 22 22 22 23 22 20 23 25 24 25 25 24 25 28 27 24 24 25 24 23 23 23 23 25 24 24 26 27 27 27 25 24 23 23 24 25 26 27 28 27 27 27 28 29
16 17 17 16 17 18 18 19 19 19 19 20 20 19 20 20 21 21 20 19 17 17 17 17 18 19 20 21 20 21 21 21 21 23 23 23 24 24 24 25 24 24 23 22 23 23 23 24 23 22 23 25 24 24 24 22 24 27 27 24 23 24 23 22 22 21 22 22 22 23 24 25 25 25 24 24 24 24 25 27 28 28 28 27 27 27 29 30
Wind_Direction
305 306 304 303 302 298 294 293 291 290 290 289 288 286 283 280 276 273 270 267 265 264 264 264 264 265 265 267 267 267 267 262 258 253 248 244 237 234 235 237 240 241 241 242 244 245 245 242 241 242 243 245 242 243 244 240 237 237 239 241 244 239 226 220 228 239 250 250 235 234 228 213 215 221 222 229 236 234 236 242 244 249 240 231 230 215 211 213
306 307 306 304 304 301 296 293 291 291 290 289 288 287 284 282 277 274 271 267 266 266 266 266 266 267 268 269 269 270 268 261 258 253 248 241 233 232 233 237 242 240 237 240 242 241 240 239 240 243 243 243 242 241 241 239 235 234 235 240 239 226 216 219 232 245 250 246 235 231 235 223 217 224 227 232 235 230 236 240 233 233 236 230 222 216 216 215
306 307 307 306 305 302 297 294 292 291 290 289 288 287 286 283 278 275 272 269 268 267 267 268 268 270 271 271 272 272 267 260 255 249 246 239 231 232 233 236 240 236 235 239 240 238 237 238 242 246 243 241 240 239 239 238 237 234 232 236 231 218 220 229 236 245 248 246 239 232 233 228 224 227 226 227 227 224 230 233 230 228 229 226 223 221 220 219
306 307 308 307 307 305 299 295 292 291 290 290 289 287 285 281 278 274 272 269 268 268 268 269 270 272 273 272 272 270 262 257 250 243 244 238 230 232 234 235 235 232 236 240 240 237 237 240 243 245 242 240 239 237 236 235 236 235 229 228 225 220 226 234 237 245 250 251 243 235 232 230 232 231 222 223 233 239 234 226 224 225 223 224 226 226 225 227
307 307 308 308 309 308 303 297 293 292 291 290 290 287 284 281 277 274 271 269 267 267 269 270 272 273 274 273 270 263 256 250 246 242 244 238 230 230 231 232 231 231 236 239 239 236 236 237 238 241 238 236 236 233 233 232 233 237 234 228 227 225 228 233 237 243 247 245 242 242 238 234 237 237 229 226 237 243 238 227 221 221 220 221 226 228 228 230
308 308 308 308 310 310 307 302 297 295 293 291 290 287 284 280 277 274 271 270 268 268 268 269 272 274 275 273 262 250 245 241 246 248 244 237 230 228 228 227 227 230 233 233 232 230 231 231 232 234 231 231 229 224 229 230 230 236 237 232 230 227 225 231 236 240 243 235 232 239 239 238 241 240 237 235 239 239 234 228 221 219 220 218 222 225 227 229
308 309 309 309 311 314 312 307 302 298 295 293 290 288 284 280 278 274 272 271 269 268 268 269 270 272 276 270 251 242 244 245 248 246 237 231 227 223 220 220 222 224 223 221 220 219 224 228 227 229 227 227 224 221 228 232 229 231 234 233 233 230 229 237 238 238 239 228 228 234 237 244 244 237 239 245 245 238 232 231 227 223 219 216 219 223 225 225
310 311 312 313 314 317 317 313 307 302 298 294 291 288 284 280 277 274 273 270 268 268 266 267 268 269 274 261 243 249 250 246 247 234 223 222 219 212 209 213 215 214 213 210 209 209 218 224 226 226 221 222 224 224 230 238 236 232 231 230 232 233 234 237 234 232 236 233 234 239 242 247 245 237 243 252 245 231 228 232 231 223 215 213 217 221 223 223
314 316 317 318 318 319 320 317 311 304 300 296 291 287 283 279 276 274 272 270 268 266 266 265 266 265 261 249 242 254 249 244 242 220 211 211 208 204 204 208 208 205 204 203 203 204 207 214 221 223 225 232 236 236 239 244 239 232 230 231 235 237 234 231 229 231 237 238 239 245 250 251 247 241 250 253 237 222 220 222 222 216 212 216 219 220 221 222
320 319 320 321 321 321 320 320 316 308 302 296 292 287 283 279 274 272 270 269 266 264 265 262 264 261 247 241 232 239 244 240 229 207 201 200 196 199 204 202 197 195 196 199 202 205 210 218 228 235 239 242 239 240 244 240 241 245 238 233 235 235 232 232 233 236 239 241 242 244 249 252 250 246 251 249 231 218 216 214 216 214 216 220 220 221 222 224
325 322 321 322 323 324 323 322 319 314 307 299 294 289 284 280 274 272 269 266 263 262 263 259 259 250 241 236 222 229 240 229 218 204 194 192 190 196 200 196 192 194 198 203 209 215 222 231 239 243 241 240 239 245 247 240 252 261 244 230 234 235 235 237 236 238 241 244 244 244 249 252 252 244 241 239 227 217 213 212 215 218 223 225 222 225 228 230
328 325 324 323 324 325 326 325 323 319 315 308 300 293 287 281 274 270 267 264 262 259 258 256 251 242 241 240 231 233 234 222 215 205 197 193 196 203 206 206 204 205 207 211 220 224 228 236 243 243 239 236 237 242 247 249 260 262 242 229 238 241 238 239 238 237 238 243 243 247 254 253 248 240 234 234 229 221 215 215 221 226 230 228 226 230 234 235
327 325 325 324 324 325 326 326 325 322 320 317 311 304 296 286 277 269 265 263 259 257 256 254 251 246 244 245 241 238 233 231 226 215 209 206 211 218 219 219 218 217 215 217 226 232 237 243 246 247 244 235 231 236 246 253 256 254 243 233 238 244 241 239 241 238 239 243 239 240 251 251 246 240 235 236 234 228 221 221 227 233 234 232 231 234 237 238
328 325 322 322 323 323 325 326 325 322 320 319 316 312 305 296 284 273 267 263 258 256 254 252 254 249 246 247 248 252 244 235 228 221 218 216 220 227 230 228 226 226 223 224 232 241 248 250 249 247 241 232 234 242 248 248 244 242 243 238 236 242 242 241 242 240 245 247 233 229 245 248 248 245 240 236 234 231 226 226 230 234 235 235 235 236 239 240
330 326 323 321 319 319 322 325 325 323 320 317 315 312 306 299 288 277 271 265 259 254 252 253 254 253 258 256 251 257 251 231 224 224 221 219 223 229 230 229 229 230 229 232 241 249 252 253 251 245 240 238 241 245 245 242 242 240 239 245 243 241 245 249 246 239 242 248 235 228 243 250 250 249 246 239 232 230 231 233 234 235 234 234 235 237 239 241
327 325 324 322 319 316 315 318 322 322 319 315 312 308 301 294 287 279 271 265 263 255 252 254 251 252 257 258 257 256 248 235 231 228 224 224 227 229 232 233 235 238 239 241 247 252 253 253 250 244 238 238 236 238 245 245 248 246 239 244 247 246 253 256 251 242 238 245 243 234 239 251 250 248 251 246 233 228 232 237 236 235 233 232 236 238 239 241
323 321 321 320 320 318 314 312 313 314 315 313 310 304 296 287 280 276 270 266 264 254 250 251 254 256 252 257 265 256 245 242 240 232 228 230 231 234 239 241 241 242 244 246 249 252 252 249 245 243 237 233 230 232 244 248 248 250 249 248 248 248 254 258 259 255 241 237 240 237 238 246 249 250 256 251 235 228 229 231 233 234 233 234 237 238 239 240
318 316 315 315 315 315 314 311 309 307 308 309 309 302 293 285 274 270 268 263 262 258 255 250 252 258 254 258 263 258 251 243 241 235 231 233 235 239 243 245 246 245 247 249 249 248 247 247 243 242 241 236 233 228 235 243 241 245 249 250 253 252 253 260 264 257 241 235 235 234 238 244 252 261 263 255 236 227 228 228 229 232 233 236 239 238 240 241
312 311 310 309 309 310 309 310 308 304 304 307 309 302 293 290 277 266 265 261 257 255 255 245 236 243 261 267 261 261 257 241 238 238 233 236 239 242 245 249 249 243 243 245 248 245 240 246 247 242 242 238 234 228 230 239 236 238 243 242 251 256 256 261 267 260 244 237 235 232 236 240 249 260 262 260 245 226 227 229 229 230 233 237 241 241 242 243
308 307 306 305 305 305 305 307 305 302 303 306 309 304 294 294 285 273 272 267 255 251 257 251 243 250 267 277 266 254 252 244 248 247 240 239 241 245 246 247 250 245 239 235 243 248 239 242 245 239 237 233 235 233 231 239 237 236 244 247 252 256 261 266 273 273 252 236 239 239 239 243 247 252 255 258 253 240 236 236 236 236 237 240 241 243 244 244
306 305 303 302 302 302 302 302 300 300 302 305 309 304 292 289 287 280 278 273 262 254 258 257 249 252 261 268 263 252 252 255 260 257 248 242 240 246 246 242 246 250 245 234 239 251 244 242 244 238 233 229 235 237 234 242 243 242 247 254 259 257 262 269 273 274 255 235 244 246 246 253 252 251 256 258 254 251 247 245 246 244 243 244 244 244 245 246
306 304 303 301 301 301 300 299 296 297 300 303 304 299 293 290 285 284 282 278 271 259 256 259 256 255 257 260 260 257 257 259 263 260 249 243 241 243 245 241 238 246 250 242 242 251 248 245 245 240 235 230 237 242 239 242 245 249 252 256 260 258 262 270 269 269 260 245 249 250 251 256 253 249 253 256 254 256 253 249 250 249 246 247 246 245 244 245
307 304 303 301 300 300 298 298 297 298 300 299 296 294 294 294 293 295 289 274 274 268 256 256 256 254 255 261 262 256 254 255 258 255 244 241 244 242 240 239 241 248 252 242 237 241 242 245 246 242 235 232 239 246 247 251 253 254 255 257 259 259 261 264 265 265 262 254 249 251 257 259 258 256 254 252 253 259 261 257 256 254 250 247 246 245 243 243
306 305 304 300 301 300 299 300 297 298 302 299 297 297 295 295 298 302 292 270 271 271 254 247 250 252 255 263 263 251 251 254 252 250 245 240 241 245 243 239 243 249 248 240 236 239 242 249 254 247 238 236 240 247 249 254 260 260 257 255 257 259 257 258 263 264 264 264 256 257 268 266 262 262 261 259 259 262 264 262 261 259 255 250 247 245 243 242
304 304 302 300 300 299 302 304 301 303 307 306 305 303 299 297 298 300 296 280 270 267 259 253 251 256 263 265 259 252 255 256 248 247 249 239 235 246 252 246 244 248 249 246 243 246 250 254 255 249 244 242 242 248 249 250 259 264 259 254 254 257 256 256 262 263 264 265 262 261 266 268 266 263 262 264 267 268 265 261 260 259 253 248 245 242 242 242
301 301 300 299 297 298 303 305 309 313 311 311 312 309 306 301 301 299 291 288 276 262 259 260 254 261 271 263 259 264 266 262 254 250 246 235 233 244 255 255 251 249 249 251 253 255 258 258 251 244 243 244 245 250 252 251 256 264 261 255 253 254 254 253 255 258 257 258 261 261 259 265 270 267 264 265 268 270 267 261 259 257 249 243 240 239 239 242
299 299 298 297 295 298 300 299 310 318 314 312 313 314 310 300 302 302 290 291 283 264 255 252 254 272 277 262 257 263 268 267 259 249 240 233 238 253 261 262 259 252 249 255 261 258 261 264 254 245 244 244 246 250 253 251 254 263 263 257 255 254 253 253 251 254 257 258 263 266 264 267 271 270 268 266 265 268 267 261 258 254 246 239 238 237 238 241
297 296 295 294 292 294 295 294 305 312 308 309 312 315 313 302 299 301 296 285 272 268 259 247 253 281 282 268 259 253 261 267 251 242 245 242 248 264 269 264 255 250 249 252 259 259 261 261 251 243 242 244 248 251 252 251 255 262 261 257 256 252 249 251 250 253 259 263 266 271 271 270 272 274 272 266 262 264 264 260 256 251 244 237 236 236 237 240
294 293 291 290 287 287 292 293 296 299 300 307 314 316 316 315 310 308 313 279 265 277 268 249 263 279 278 280 276 262 262 269 255 248 252 253 257 266 270 264 252 249 249 245 249 256 259 256 249 243 245 249 253 255 253 251 257 261 255 255 262 257 251 251 251 255 264 267 267 270 271 269 272 275 272 267 261 259 262 265 262 252 243 236 234 234 237 240
293 290 288 286 281 280 287 287 285 291 299 308 314 314 317 323 331 349 331 274 264 286 283 266 275 275 273 289 286 273 265 262 256 255 260 263 267 269 269 270 266 256 253 252 249 252 257 258 252 248 248 249 252 258 257 252 255 258 254 257 267 267 261 258 256 259 266 267 264 265 266 267 273 273 266 259 256 258 265 273 270 254 242 237 234 234 236 238
294 290 285 282 279 277 282 281 280 289 299 309 315 317 319 318 340 39 298 272 273 289 300 298 290 283 279 280 280 282 280 267 255 254 265 270 272 275 276 279 282 275 265 262 258 258 261 260 257 255 250 248 255 262 265 261 255 256 260 260 259 261 263 265 266 265 262 259 259 264 267 264 265 267 264 259 263 268 268 270 270 254 240 239 238 237 236 237
296 290 283 277 276 277 277 274 279 292 300 309 317 317 321 318 315 298 288 300 294 288 306 314 298 293 285 276 278 284 284 276 261 253 260 266 265 268 273 270 272 282 277 266 262 265 263 256 259 264 256 250 255 262 271 274 260 254 262 258 251 257 264 265 266 264 258 255 257 261 266 264 262 264 266 265 269 274 270 264 261 252 243 241 241 240 238 238
297 291 284 274 270 276 276 270 279 293 298 308 312 308 357 334 276 281 297 308 292 285 306 307 296 304 302 288 285 285 281 276 267 257 257 260 260 266 272 268 261 265 269 265 263 266 265 262 264 266 263 255 250 255 265 270 258 248 251 249 245 252 260 262 264 264 261 259 259 259 261 265 267 268 261 255 261 272 278 273 261 254 252 247 245 244 241 240
296 287 282 275 268 271 273 270 278 288 299 306 298 298 332 271 266 292 301 287 281 289 300 299 298 310 315 301 292 294 293 283 273 263 259 259 262 267 270 268 262 262 266 266 264 260 258 264 262 258 261 258 253 252 252 256 257 250 246 246 248 248 251 256 258 259 260 260 260 261 260 258 260 265 257 252 262 272 282 284 271 258 258 256 251 248 243 241
292 280 276 277 271 265 265 269 277 286 296 294 282 279 273 259 272 296 292 282 284 290 294 300 307 309 305 299 295 302 307 294 281 271 261 258 261 263 263 265 263 262 263 261 261 259 255 257 258 257 259 259 263 263 252 251 263 260 251 250 254 251 250 256 255 252 255 261 263 260 258 258 260 267 269 269 274 276 282 293 292 275 268 268 262 255 250 249
287 277 270 271 271 263 260 267 272 277 281 277 275 273 257 257 275 287 286 289 290 292 295 299 306 307 302 299 296 304 313 305 294 284 267 262 264 263 262 266 265 259 257 257 258 257 254 256 259 261 262 257 261 267 261 251 256 261 256 251 254 254 252 257 260 260 259 263 264 260 261 269 273 272 274 276 275 276 279 283 284 274 267 276 277 269 262 260
288 280 266 263 269 266 261 267 271 274 277 266 258 263 256 264 281 283 284 289 291 297 303 298 296 299 300 298 293 297 304 301 300 296 279 273 273 268 265 269 271 263 255 256 260 258 253 258 263 261 259 257 257 266 272 261 250 255 260 255 256 262 260 259 261 265 263 261 264 263 262 269 273 269 273 279 275 272 271 268 265 265 262 269 278 277 271 269
288 285 268 260 264 264 265 273 274 272 274 269 262 263 260 269 281 283 283 286 289 299 303 295 292 293 294 294 289 290 293 291 294 294 286 280 276 273 271 269 273 274 263 255 260 262 258 260 265 262 256 257 260 262 269 270 254 249 260 262 260 260 259 258 257 260 261 261 266 269 265 263 264 261 265 274 273 268 266 261 258 261 263 263 270 277 278 278
285 287 272 261 261 265 271 274 272 271 273 269 263 263 267 270 276 283 289 291 291 296 297 291 291 293 291 289 286 285 285 283 287 288 283 279 276 278 280 270 269 279 278 265 259 263 262 259 261 263 258 257 261 259 259 265 263 258 264 268 265 260 255 254 254 254 257 260 264 268 268 264 258 254 253 260 268 268 264 261 257 259 263 261 261 266 271 274
281 280 269 266 269 274 277 273 269 270 268 265 260 263 272 274 276 283 293 296 292 293 293 288 289 291 288 288 288 285 282 279 282 282 277 277 279 279 279 272 266 273 280 274 264 263 265 262 260 264 264 258 257 254 251 258 263 266 270 270 271 271 266 262 261 257 255 257 259 262 266 264 258 255 252 255 263 265 262 260 259 260 263 261 258 260 264 268
281 274 268 274 280 280 281 276 268 261 259 267 269 270 279 282 283 289 296 298 294 291 289 288 290 289 285 288 289 286 285 281 279 279 275 276 278 275 275 274 269 266 268 271 269 265 265 264 262 265 265 259 256 255 255 258 260 262 265 266 267 269 268 266 264 261 257 255 255 258 263 264 260 256 255 255 257 258 257 257 258 259 261 263 261 261 263 265
280 271 268 278 284 281 279 273 268 262 261 271 274 273 280 284 285 290 296 298 296 292 291 291 291 289 286 287 287 286 287 283 278 278 275 273 274 271 273 278 276 268 261 263 266 264 264 266 266 266 264 262 261 261 261 262 260 258 261 263 265 266 264 262 262 264 263 259 258 260 264 265 262 257 255 256 254 252 253 255 258 261 260 261 265 266 267 268
279 272 268 278 284 280 275 271 272 272 271 276 277 276 280 282 283 287 293 295 293 291 290 289 287 288 288 287 288 288 288 284 279 276 274 274 274 271 275 282 281 274 266 265 266 266 267 268 269 269 270 270 270 268 267 266 262 261 263 265 263 262 261 261 261 262 262 261 260 260 263 265 266 260 254 254 255 257 259 260 262 266 264 262 265 268 270 271
279 273 269 279 286 280 271 269 270 273 275 278 280 279 279 281 284 287 290 291 289 286 287 286 285 286 286 287 288 286 285 284 283 280 277 274 272 272 281 287 284 276 268 265 264 265 267 267 267 272 274 275 276 274 272 269 265 261 261 262 261 261 263 263 263 262 261 259 255 254 258 261 262 262 258 256 257 258 261 262 261 264 266 266 266 266 266 268
279 274 272 279 284 278 270 267 268 271 276 280 280 280 281 281 285 288 289 289 287 286 286 285 285 285 285 287 287 283 280 279 281 282 281 276 272 273 282 287 284 276 269 265 264 265 265 264 265 267 268 269 270 270 268 267 265 261 258 258 259 261 263 263 263 261 260 261 257 255 260 263 261 264 267 266 263 260 260 262 262 263 266 268 269 269 267 265
278 275 276 279 280 277 271 271 274 275 277 280 281 281 282 283 285 289 290 289 290 291 288 286 287 287 287 288 286 283 281 279 279 281 282 279 275 275 281 283 279 277 275 273 270 267 267 267 265 262 261 264 266 267 267 267 266 265 263 263 262 260 260 261 260 258 257 260 261 258 261 265 265 265 269 270 268 265 263 265 265 266 268 269 269 270 269 268
278 275 277 278 278 277 275 277 281 279 278 280 280 280 283 284 285 287 287 286 290 293 288 286 290 289 286 287 284 282 283 283 282 281 281 280 277 277 281 279 276 278 278 275 272 269 268 270 267 263 262 264 265 267 269 269 267 266 266 266 264 260 259 259 258 257 256 259 262 260 259 264 266 266 267 269 268 267 268 268 269 269 269 270 269 269 271 273
279 276 278 278 276 275 275 278 281 282 282 281 280 280 283 285 285 286 287 286 289 291 286 285 291 291 288 286 282 282 285 285 283 282 281 282 281 281 281 277 275 281 279 274 272 268 266 269 268 265 266 265 264 265 267 266 267 267 266 266 265 262 260 259 257 256 254 255 259 260 259 261 264 266 268 269 269 269 271 272 271 272 273 272 271 271 274 275
281 279 280 282 278 274 275 279 282 283 284 283 282 282 284 286 285 286 288 287 287 289 286 283 286 289 290 287 282 282 284 283 282 282 282 283 283 281 280 274 272 278 279 275 272 268 267 271 269 267 269 269 266 265 265 265 268 269 268 266 264 262 261 260 259 257 255 256 259 260 261 262 262 264 267 269 270 270 272 274 275 276 275 274 274 274 275 276
283 280 282 284 282 278 278 282 284 283 282 283 282 282 284 288 288 285 285 284 283 285 286 283 283 285 287 288 285 282 281 280 280 280 281 283 283 280 278 274 272 275 276 272 270 270 271 272 270 270 272 272 269 267 267 267 268 269 270 267 265 265 265 263 261 259 258 260 261 260 262 262 262 262 264 267 270 271 273 276 277 277 276 275 276 275 275 276
282 280 282 282 280 280 281 282 283 281 280 281 281 281 284 288 289 285 283 283 282 281 281 279 280 283 284 286 285 280 279 279 278 278 279 279 279 277 275 275 275 276 274 271 270 271 271 271 272 273 273 273 271 269 270 272 273 271 269 267 265 267 268 265 263 261 260 261 261 261 261 261 262 263 264 265 269 271 273 275 276 276 275 274 274 275 276 276
285 281 283 282 278 281 283 283 282 281 278 279 281 282 283 286 290 288 283 283 285 282 280 279 279 282 284 283 280 276 276 277 277 278 278 278 278 277 275 275 274 272 271 270 270 268 268 269 271 272 272 274 273 271 272 276 276 272 268 265 264 265 265 265 266 264 260 259 258 259 259 258 260 263 265 267 269 269 272 274 275 275 274 275 276 277 278 277